#timestamp,LO_Frequency,Hit,StdDev 
1571706015.3,286047000.6,N
1571706035.1,286047000.3,N
1571706055.8,286047002.1,N
1571706075.7,286046999.7,N
1571706095.5,286047002.8,N
1571706115.3,286047000.5,N
1571706135.2,286047002.3,N
1571706155.0,286046999.9,N
1571706155.9,286046999.9,N
1571706175.7,286047001.0,N
1571706195.6,286047001.2,N
1571706215.4,286047002.5,N
1571706235.2,286047003.8,Y
1571706255.1,286047003.8,P
1571706256.0,286047003.8,N
1571706275.8,286047005.9,P
1571706295.7,286047006.0,Y
1571706315.5,286047000.2,P
1571706335.3,286047000.3,N
1571706355.2,286046998.3,N
1571706375.9,286046999.5,N
1571706395.7,286046997.0,N
1571706415.6,286046999.1,N
1571706435.4,286046999.2,N
1571706455.2,286046998.4,N
1571706475.1,286047000.0,N
1571706476.0,286047000.0,N
1571706495.8,286046998.1,N
1571706515.6,286046999.9,N
1571706535.5,286047000.0,N
1571706555.3,286047000.4,N
1571706575.1,286047000.4,N
1571706595.8,286046999.7,N
1571706615.7,286047000.2,N
1571706635.5,286047000.2,N
1571706655.3,286046998.1,N
1571706675.2,286046998.9,N
1571706695.0,286047000.1,N
1571706695.9,286047000.1,N
1571706715.7,286047002.1,N
1571706735.6,286047002.5,N
1571706755.4,286047000.9,N
1571706775.2,286047001.0,N
1571706795.1,286046998.6,N
1571706796.0,286046998.6,N
1571706815.8,286046998.2,N
1571706835.6,286046998.8,N
1571706855.5,286046998.4,N
1571706875.3,286046998.8,N
1571706895.1,286046998.2,N
1571706915.9,286047000.8,N
1571706935.7,286047000.6,N
1571706955.5,286046999.7,N
1571706975.4,286047002.2,N
1571706995.2,286047002.4,N
1571707015.0,286047002.6,N
1571707015.9,286047002.6,N
1571707035.8,286047002.2,N
1571707055.6,286047001.7,N
1571707075.4,286047002.8,N
1571707095.3,286047002.6,N
1571707115.1,286047002.4,N
1571707116.0,286047002.4,N
1571707135.8,286047001.1,N
1571707155.7,286047000.5,N
1571707175.5,286047004.2,N
1571707195.3,286047003.8,N
1571707215.2,286047005.8,Y
1571707235.9,286047001.8,P
1571707255.7,286047001.7,P
1571707275.6,286047003.0,P
1571707295.4,286047003.5,Y
1571707315.2,286047002.3,P
1571707335.1,286047002.8,P
1571707336.0,286047002.8,P
1571707355.8,286047002.0,Y
1571707375.6,286046998.6,P
1571707395.5,286047000.9,N
1571707415.3,286046999.5,N
1571707435.1,286046996.9,N
1571707455.9,286047000.8,N
1571707475.7,286046999.8,N
1571707495.5,286047001.5,N
1571707515.4,286047001.4,N
1571707535.2,286047002.5,N
1571707555.0,286047002.4,N
1571707555.9,286047002.4,N
1571707575.8,286047000.1,N
1571707595.6,286047003.6,N
1571707615.4,286047004.0,N
1571707635.3,286047004.0,N
1571707655.1,286046999.8,N
1571707656.0,286046999.8,N
1571707675.8,286047000.6,N
1571707695.7,286047000.9,N
1571707715.5,286047000.6,N
1571707735.3,286046998.6,N
1571707755.1,286046999.6,N
1571707775.9,286046998.7,N
1571707795.7,286046998.8,N
1571707815.5,286047001.0,N
1571707835.4,286047000.6,N
1571707855.2,286046998.4,N
1571707875.0,286046999.1,N
1571707875.9,286046999.1,N
1571707895.8,286046998.6,N
1571707945.6,286046998.8,E
1571707955.5,286046998.1,N
1571707975.4,286047000.1,P
1571707995.2,286047003.8,P
1571708015.0,286047004.1,N
1571708015.9,286047004.1,N
1571708035.8,286047004.2,N
1571708055.6,286047003.2,N
1571708075.4,286047003.0,N
1571708095.3,286047004.1,N
1571708115.1,286047005.6,N
1571708135.8,286047003.1,N
1571708155.7,286047004.2,N
1571708175.5,286047003.8,N
1571708195.3,286047004.2,N
1571708215.2,286047001.7,N
1571708235.9,286047001.7,N
1571708255.7,286047001.4,N
1571708275.6,286047003.9,N
1571708295.4,286046999.7,N
1571708315.2,286047002.4,N
1571708335.1,286047001.3,N
1571708336.0,286047001.3,N
1571708355.8,286047002.6,N
1571708375.6,286047001.8,N
1571708395.5,286047002.0,N
1571708415.3,286047002.4,N
1571708435.1,286047002.2,N
1571708455.9,286047001.3,N
1571708475.7,286047001.5,N
1571708495.5,286047003.2,N
1571708515.4,286047003.8,N
1571708535.2,286047003.0,N
1571708555.0,286047003.4,N
1571708555.9,286047003.4,N
1571708575.8,286047005.8,Y
1571708595.6,286046999.8,P
1571708615.4,286047000.9,N
1571708635.3,286046999.7,N
1571708655.1,286047000.9,N
1571708656.0,286047000.9,N
1571708675.8,286047002.7,N
1571708695.7,286047001.6,N
1571708715.5,286047002.8,N
1571708735.3,286047002.6,N
1571708755.2,286047002.7,N
1571708775.9,286047003.9,Y
1571708795.7,286047002.7,P
1571708815.6,286047002.7,P
1571708835.4,286047000.4,N
1571708855.2,286046998.1,N
1571708875.1,286047002.6,N
1571708876.0,286047002.6,N
1571708895.8,286047002.1,N
1571708915.6,286047001.9,N
1571708935.5,286047005.4,Y
1571708955.3,286047001.5,P
1571708975.1,286047005.9,P
1571708995.9,286047005.9,N
1571709015.7,286047003.7,N
1571709035.5,286046999.7,N
1571709055.3,286047001.8,N
1571709075.2,286047004.3,N
1571709095.0,286047005.7,N
1571709095.9,286047005.7,N
1571709115.7,286047004.3,N
1571709135.6,286047003.5,N
1571709155.4,286047005.1,N
1571709175.2,286047005.7,N
1571709195.1,286047004.9,N
1571709196.0,286047004.9,N
1571709215.8,286047004.7,N
1571709235.6,286047007.5,Y
1571709255.5,286046999.8,P
1571709275.3,286046998.6,N
1571709295.1,286047000.8,N
1571709315.9,286046996.6,N
1571709335.7,286046997.3,N
1571709355.5,286046995.1,N
1571709375.4,286046997.2,N
1571709395.2,286046996.2,N
1571709415.0,286046995.8,N
1571709415.9,286046995.8,N
1571709435.8,286046993.7,N
1571709455.6,286046996.2,N
1571709475.4,286046995.2,N
1571709495.3,286046997.9,N
1571709515.1,286046997.6,N
1571709535.8,286046998.4,N
1571709555.7,286046998.5,N
1571709575.5,286046998.2,N
1571709595.3,286047000.1,N
